SCP
0 0 0 0 0 0 0 0 0 0 0 0 0 0 0 0 0 0 0 0 0 0 -0 0 0 0 0 0 0 0 0 0 0 0 0 0 0 0 0 0 0 0 0 0 0
0 0 0 0 0 0 0 0 0 0 0 0 0 0 0 0 0 0 0 0 0 0 0 0 0 0 0 0 0 0 0 0 0 0 0 0 0 0 0 0 0 0 0 0 0
0 0 0 0 0 0 0 0 0 0 0 0 0 0 0 0 0 0 0 0 0 0 0 0 0 0 0 0 0 0 0 0 0 0 0 0 0 0 0 0 0 0 0 0 0
0 0 0 0 0 0 0 0 0 0 0 0 0 0 0 0 0 0 0 0 0 0 0 0 0 0 0 0 0 0 0 0 0 0 0 0 0 0 0 0 0 0 0 0 0
-0 0 0 0 0 -0 0 0 0 0 0 0 0 0 0 0 0 0 0 0 0 0 0 0 0 0 0 0 0 0 0 0 0 0 0 0 0 0 0 0 0 0 0 0 0
0 0 0 0 0 0 0 0 0 0 0 0 0 0 0 0 0 0 0 0 0 0 0 0 0 0 0 0 0 0 0 0 0 0 0 0 0 0 0 0 0 0 0 0 0
0 0 0 0 0 0 0 0 0 0 0 0 0 0 0 0 0 0 0 0 0 0 0 0 0 0 0 0 0 0 0 0 0 0 0 0 0 0 0 0 0 0 0 0 0
0 0 0 0 0 0 0 0 0 0 0 0 0 0 0 0 0 0 0 0 0 0 0 0 0 0 0 0 0 0 0 0 0 0 0 0 0 0 0 0 0 0 0 0 0
0 0 0 0 0 0 0 0 0 0 0 0 0 0 0 0 0 0 0 0 0 0 0 0 0 0 0 0 0 0 0 0 0 0 0 0 0 0 0 0 0 0 0 0 0
0 0 0 0 0 0 0 0 0 0 0 0 0 0 0 0 0 0 0 0 0 0 0 0 0 0 0 0 0 0 0 0 0 0 0 0 0 0 0 0 0 0 0 0 0
0 0 0 0 0 0 0 0 0 0 0 0 0 0 0 0 0 0 0 0 0 0 0 0 0 0 0 0 0 0 0 0 0 0 0 0 0 0 0 0 0 0 0 0 0
-0 0 0 0 0 0 0 0 0 0 0 0 0 0 0 0 0 0 0 0 0 0 0 0 0 0 0 0 0 0 0 0 0 0 0 0 0 -0 0 0 0 0 0 0 0
-0 0 0 0 0 0 0 0 0 0 0 0 0 0 0 0 0 0 0 0 0 0 0 0 0 0 0 0 0 0 0 0 0 0 0 0 0 0 0 0 0 0 0 0 0
0 0 0 0 0 0 0 0 0 0 0 0 0 0 0 0 0 0 0 0 0 0 0 0 0 0 0 0 0 0 0 0 0 0 0 0 0 0 0 0 0 0 0 0 0
0 0 0 0 0 0 0 0 0 0 0 0 0 0 0 0 0 0 0 0 0 0 0 0 0 0 0 0 0 0 0 0 0 0 0 0 0 0 0 0 0 0 0 0 0
0 0 0 0 0 0 0 0 0 0 0 0 0 0 0 0 0 0 0 0 0 0 0 0 0 0 0 0 0 0 0 0 0 0 0 0 0 0 0 0 0 0 0 0 0
0 0 0 0 0 0 0 0 0 0 0 0 0 0 0 0 0 0 0 0 0 0 0 0 0 0 0 0 0 0 0 0 0 0 0 0 0 0 0 0 0 0 0 0 0
0 0 0 0 0 0 0 0 0 0 0 0 0 0 0 0 0 0 0 0 0 0 0 0 0 0 0 0 0 0 0 0 0 0 0 0 0 0 0 0 0 0 0 0 0
0 0 0 0 0 0 0 0 0 0 0 0 0 0 0 0 0 0 0 0 0 0 0 0 0 0 0 0 0 0 0 0 0 0 0 0 0 0 0 0 0 0 0 0 0
0 0 0 0 0 0 0 0 0 0 0 0 0 0 0 0 0 0 0 0 0 0 0 0 0 0 0 0 0 0 0 0 0 0 0 0 0 0 0 0 0 0 0 0 0
0 0 0 0 0 0 0 0 0 0 0 0 0 0 0 0 0 0 0 0 0 0 0 0 0 0 0 0 0 0 0 0 0 0 0 0 0 0 0 0 0 0 0 0 0
0 0 0 0 0 0 0 0 0 0 0 0 0 0 0 0 0 0 0 0 0 0 0 0 0 0 0 0 0 0 0 0 0 0 0 0 0 0 0 0 0 0 0 0 0
0 0 0 0 0 0 0 0 0 0 0 0 0 0 0 0 0 0 0 0 0 0 0 0 0 0 0 0 0 0 0 0 0 0 0 0 0 0 0 0 0 0 0 0 0
0 0 0 0 0 0 0 0 0 0 0 0 0 0 0 0 0 0 0 0 0 0 0 0 0 0 0 0 0 0 0 0 0 0 0 0 0 0 0 0 0 0 0 0 0
0 0 0 0 0 0 0 0 0 0 0 0 0 0 0 0 0 0 0 0 0 0 0 0 0 0 0 0 0 0 0 0 0 0 0 0 0 0 0 0 0 0 0 0 0
0 0 0 0 0 0 0 0 0 0 0 0 0 0 0 0 0 0 0 0 0 0 0 0 0 0 0 0 0 0 0 0 0 0 0 0 0 0 0 0 0 0 0 0 0
0 0 0 0 0 0 0 0 0 0 0 0 0 0 0 0 0 0 0 0 0 0 0 0 0 0 0 0 0 0 0 0 0 0 0 0 0 0 0 0 0 0 0 0 0
Wind_Speed_500mb
13 13 13 16 18 18 17 17 15 11 13 13 12 10 8 7 6 7 4 7 4 4 3 2 5 10 10 3 4 2 5 2 10 7 7 25 11 28 29 37 57 29 35 25 33
14 13 13 14 16 18 20 19 17 15 15 17 19 17 12 10 6 4 9 8 6 4 2 1 7 12 7 4 3 6 6 6 7 5 7 34 20 16 15 23 23 40 34 29 35
18 18 19 18 17 17 16 17 19 19 17 19 23 22 20 7 3 5 11 7 5 3 2 4 7 9 4 5 5 7 6 12 15 13 14 17 33 15 6 17 25 30 33 34 39
17 17 17 17 19 19 18 14 15 16 18 19 25 30 20 11 4 4 13 7 5 3 5 6 6 4 3 4 7 12 26 19 7 17 7 7 15 27 37 15 16 19 22 31 41
18 18 16 15 16 15 14 13 11 12 16 19 25 34 22 6 1 15 14 7 2 6 10 13 6 2 3 12 13 19 22 35 25 17 30 28 32 23 28 19 15 17 25 33 37
20 19 17 15 13 12 10 4 1 6 11 18 25 32 19 6 13 14 7 5 13 12 13 20 11 11 13 13 13 26 41 23 27 23 18 26 13 10 14 19 17 19 24 29 35
23 22 19 14 15 17 21 21 21 23 27 30 29 24 13 9 11 9 4 10 11 8 13 15 18 11 11 11 16 24 12 10 27 17 6 5 11 7 9 20 21 16 20 25 31
23 22 16 13 15 19 21 26 32 34 29 24 18 13 12 9 4 7 8 16 18 13 14 16 20 21 11 24 9 7 8 6 6 16 1 4 6 8 9 21 20 19 17 20 27
23 21 12 11 13 15 20 25 27 23 20 17 10 6 7 7 7 11 13 14 22 21 23 23 22 15 11 11 8 1 5 7 1 10 5 7 7 17 13 17 16 16 16 16 19
24 22 11 9 12 13 16 18 16 12 12 13 10 3 5 3 9 9 13 15 16 18 16 9 11 9 9 8 11 11 9 7 7 6 9 10 9 16 16 17 14 9 9 14 17
21 21 13 3 9 13 12 13 4 3 5 10 3 8 9 12 15 8 14 15 15 7 6 14 14 7 4 2 1 7 9 11 6 2 3 6 10 16 29 15 13 5 6 11 15
18 19 14 5 9 14 9 4 3 10 17 14 13 12 10 4 4 5 4 5 3 7 7 14 8 4 8 1 11 12 13 5 2 6 2 1 13 14 30 24 20 12 6 2 11
15 15 13 8 8 14 5 9 11 12 8 5 6 6 6 6 8 11 7 8 12 11 9 10 9 4 5 10 10 10 10 2 2 7 5 3 9 10 16 29 29 18 13 2 12
16 13 12 6 6 7 5 13 16 1 9 3 5 6 6 8 9 14 10 6 11 11 10 13 4 3 10 8 2 7 1 2 2 6 2 5 7 9 14 16 23 28 20 10 11
15 11 10 6 1 9 10 25 3 3 7 9 6 2 11 7 2 12 14 9 8 8 5 4 3 4 9 4 2 8 5 5 3 3 5 5 6 14 18 16 20 36 30 18 13
13 10 9 5 2 7 14 22 2 13 11 7 7 5 5 9 6 6 8 11 11 9 16 6 4 6 3 2 4 8 8 6 5 5 4 10 10 9 13 23 10 36 36 23 14
14 9 8 5 2 14 25 19 10 9 8 10 1 2 5 3 5 5 4 8 7 11 1 2 4 2 3 7 3 7 8 6 7 6 8 3 2 18 16 10 23 40 42 27 17
13 6 5 3 11 30 27 11 10 8 10 4 3 5 1 4 1 2 5 4 3 4 7 10 7 1 3 3 10 5 10 9 13 6 4 5 12 12 9 17 34 43 34 25 18
7 3 8 8 25 24 9 8 15 10 8 12 3 5 9 2 3 2 6 10 7 3 13 9 2 2 9 4 3 4 3 7 12 5 7 8 14 11 8 7 19 27 28 27 22
2 7 11 13 21 14 8 8 7 2 1 6 10 8 9 8 4 5 7 6 7 1 2 7 8 2 1 3 4 6 7 7 5 4 7 8 10 12 14 19 16 24 37 30 25
6 3 5 17 18 5 7 11 4 5 5 6 5 4 7 9 11 6 7 5 6 6 4 6 6 2 7 9 12 2 1 4 5 8 10 4 12 12 15 24 25 36 42 33 30
5 4 6 22 6 3 5 10 6 7 6 2 2 7 11 8 5 4 12 8 15 16 11 7 9 6 11 2 4 6 11 9 8 10 6 4 14 8 8 15 36 32 37 37 35
7 4 10 19 6 4 6 3 4 6 7 7 3 1 2 11 1 6 7 5 17 6 11 8 3 5 9 9 9 3 8 7 8 6 10 11 11 2 8 14 30 28 15 18 25
4 3 3 8 6 12 8 7 2 7 2 7 7 6 4 2 5 8 4 6 12 5 8 7 5 11 12 9 9 5 6 10 12 7 7 20 8 11 12 14 13 11 22 34 33
5 4 8 3 6 4 7 10 8 10 7 13 3 9 12 5 5 7 6 5 5 10 6 8 7 3 7 8 5 12 10 17 21 25 18 18 29 15 11 19 29 39 28 19 21
5 7 7 6 9 10 3 9 14 6 14 9 8 9 13 12 14 16 13 8 10 4 6 6 2 5 9 5 14 15 20 22 38 40 40 43 60 21 50 53 49 22 17 20 21
5 9 6 10 5 9 9 10 12 17 13 5 16 6 14 14 13 3 12 13 21 16 9 10 9 6 10 11 13 19 27 41 16 11 43 29 38 10 16 13 13 17 25 34 38
Wind_Direction_500mb
331 318 310 312 309 304 292 288 284 260 247 234 211 194 184 203 247 268 328 328 336 301 341 171 158 116 128 74 156 149 79 169 25 46 110 21 64 51 70 86 59 66 46 10 334
335 328 321 312 303 290 286 282 274 261 237 223 206 199 186 168 131 93 347 328 329 336 347 221 92 113 83 96 73 80 102 113 3 17 60 57 63 41 52 59 45 26 26 9 352
348 342 331 328 317 302 286 275 267 253 234 219 203 190 172 187 310 355 355 324 329 303 313 70 90 75 88 78 54 49 106 144 47 47 71 96 60 58 88 44 34 25 21 3 5
358 347 337 330 330 314 304 284 263 249 227 212 198 182 187 197 203 3 346 318 314 264 185 145 97 67 120 101 87 106 58 100 102 45 52 57 87 69 75 91 37 37 15 10 23
9 3 358 349 335 329 314 297 269 236 215 198 185 184 190 176 331 320 318 298 222 196 169 150 141 293 17 120 93 90 113 77 110 78 44 92 101 103 91 80 59 43 30 27 27
14 8 2 5 11 17 8 20 164 182 176 166 161 165 171 114 319 331 315 155 173 189 162 163 124 107 80 66 70 97 95 93 72 78 62 112 85 100 82 101 76 52 48 30 23
20 16 16 32 51 51 67 72 93 109 119 129 141 159 159 166 326 346 16 111 156 141 153 162 156 134 99 89 99 120 92 63 29 8 81 69 44 95 90 113 100 61 42 32 18
18 21 37 66 70 71 83 97 104 107 113 125 142 156 107 48 48 13 91 99 102 112 118 125 133 108 81 116 70 102 91 138 19 20 46 70 170 180 119 122 109 97 73 36 17
15 15 43 100 96 86 92 110 118 113 116 125 142 119 90 39 73 81 91 109 97 98 98 116 100 83 94 101 51 252 192 135 266 20 320 166 147 183 162 132 120 106 86 58 37
8 9 22 119 126 119 110 112 113 118 124 121 113 128 108 38 81 83 91 114 101 109 100 92 75 72 32 64 190 180 152 98 157 314 1 81 149 174 177 152 137 108 84 70 48
6 8 11 100 142 135 136 123 109 79 89 68 55 94 120 103 80 87 119 112 91 66 84 36 68 96 109 348 49 96 95 113 124 227 39 191 177 194 180 178 153 153 86 65 29
1 5 3 1 178 166 143 46 43 138 93 77 71 93 95 89 64 114 90 85 168 103 80 31 104 216 301 330 69 47 112 58 65 165 169 237 259 234 188 190 186 193 165 91 352
355 358 357 354 197 197 210 347 153 135 74 71 79 72 76 83 59 3 49 85 89 50 18 114 167 219 111 53 83 42 102 103 201 318 226 309 287 194 203 184 197 204 176 227 332
350 350 0 35 137 185 176 126 136 183 74 318 26 17 16 116 39 37 64 72 44 129 101 92 243 190 104 88 329 112 324 130 39 44 186 109 258 248 192 197 199 209 195 223 293
349 342 354 356 89 148 148 163 141 28 12 334 351 5 52 77 87 24 53 78 74 66 102 210 111 53 77 127 3 151 153 114 53 50 38 219 103 265 157 214 217 212 194 214 268
348 336 342 343 195 159 153 170 190 45 261 331 349 9 46 28 31 35 60 79 115 75 43 105 42 55 109 140 75 130 109 71 53 64 15 218 157 259 186 212 182 193 188 202 240
345 335 334 330 175 158 150 149 46 124 335 297 144 315 60 36 15 10 55 37 128 86 62 33 39 64 66 89 34 61 86 24 5 6 224 70 64 247 223 201 172 173 180 196 217
339 345 8 23 137 148 149 58 95 229 218 211 117 69 125 7 328 323 132 103 1 152 116 150 299 74 21 93 162 129 149 156 194 200 233 334 235 257 223 125 170 178 179 197 214
342 68 56 116 148 156 165 73 203 209 165 152 81 125 313 276 156 264 184 183 196 143 148 124 123 52 49 45 77 232 182 169 99 54 51 225 287 316 77 110 151 172 190 209 218
307 95 51 145 163 159 77 225 178 84 51 135 174 167 198 241 162 187 193 212 158 116 183 187 86 9 170 76 43 140 185 83 2 122 260 274 276 238 209 211 201 203 210 221 231
149 94 84 153 160 174 156 214 220 188 117 169 231 186 207 194 174 219 213 295 158 150 84 134 97 167 53 203 178 109 145 36 119 152 180 243 255 217 213 201 200 212 217 229 236
198 67 148 158 84 55 154 176 169 175 182 195 234 181 180 151 174 231 197 186 160 151 159 210 131 150 221 140 37 164 197 158 132 237 233 149 271 267 175 191 195 210 224 237 230
141 112 169 179 128 291 312 295 209 153 187 150 214 63 302 188 87 179 101 113 150 107 166 215 304 50 338 351 357 188 207 185 127 102 214 149 255 197 145 144 160 172 197 238 253
167 46 109 196 144 136 146 258 159 174 141 138 166 82 67 82 62 189 129 169 174 111 128 118 91 167 190 191 127 192 248 196 134 134 203 228 245 252 211 201 183 187 283 277 275
171 202 174 237 270 120 131 170 162 196 189 189 185 184 163 138 49 206 144 109 165 183 131 105 184 134 267 232 186 206 189 201 205 209 195 244 236 214 214 217 226 304 293 281 283
182 158 154 133 148 99 279 232 194 149 145 248 171 212 172 168 187 192 136 181 192 161 124 5 234 88 305 283 226 255 217 219 228 233 250 260 275 263 269 271 275 272 274 285 280
163 172 165 165 154 99 219 214 206 157 208 186 194 146 198 219 177 154 164 172 168 149 148 135 129 91 265 339 318 288 214 207 211 208 223 234 247 246 275 260 239 261 273 282 282
Wind_Speed_850mb
13 13 13 16 18 18 17 17 15 11 13 13 12 10 8 7 6 7 4 7 4 4 3 2 5 10 10 3 4 2 5 2 10 7 7 25 11 28 29 37 57 29 35 25 33
14 13 13 14 16 18 20 19 17 15 15 17 19 17 12 10 6 4 9 8 6 4 2 1 7 12 7 4 3 6 6 6 7 5 7 34 20 16 15 23 23 40 34 29 35
18 18 19 18 17 17 16 17 19 19 17 19 23 22 20 7 3 5 11 7 5 3 2 4 7 9 4 5 5 7 6 12 15 13 14 17 33 15 6 17 25 30 33 34 39
17 17 17 17 19 19 18 14 15 16 18 19 25 30 20 11 4 4 13 7 5 3 5 6 6 4 3 4 7 12 26 19 7 17 7 7 15 27 37 15 16 19 22 31 41
18 18 16 15 16 15 14 13 11 12 16 19 25 34 22 6 1 15 14 7 2 6 10 13 6 2 3 12 13 19 22 35 25 17 30 28 32 23 28 19 15 17 25 33 37
20 19 17 15 13 12 10 4 1 6 11 18 25 32 19 6 13 14 7 5 13 12 13 20 11 11 13 13 13 26 41 23 27 23 18 26 13 10 14 19 17 19 24 29 35
23 22 19 14 15 17 21 21 21 23 27 30 29 24 13 9 11 9 4 10 11 8 13 15 18 11 11 11 16 24 12 10 27 17 6 5 11 7 9 20 21 16 20 25 31
23 22 16 13 15 19 21 26 32 34 29 24 18 13 12 9 4 7 8 16 18 13 14 16 20 21 11 24 9 7 8 6 6 16 1 4 6 8 9 21 20 19 17 20 27
23 21 12 11 13 15 20 25 27 23 20 17 10 6 7 7 7 11 13 14 22 21 23 23 22 15 11 11 8 1 5 7 1 10 5 7 7 17 13 17 16 16 16 16 19
24 22 11 9 12 13 16 18 16 12 12 13 10 3 5 3 9 9 13 15 16 18 16 9 11 9 9 8 11 11 9 7 7 6 9 10 9 16 16 17 14 9 9 14 17
21 21 13 3 9 13 12 13 4 3 5 10 3 8 9 12 15 8 14 15 15 7 6 14 14 7 4 2 1 7 9 11 6 2 3 6 10 16 29 15 13 5 6 11 15
18 19 14 5 9 14 9 4 3 10 17 14 13 12 10 4 4 5 4 5 3 7 7 14 8 4 8 1 11 12 13 5 2 6 2 1 13 14 30 24 20 12 6 2 11
15 15 13 8 8 14 5 9 11 12 8 5 6 6 6 6 8 11 7 8 12 11 9 10 9 4 5 10 10 10 10 2 2 7 5 3 9 10 16 29 29 18 13 2 12
16 13 12 6 6 7 5 13 16 1 9 3 5 6 6 8 9 14 10 6 11 11 10 13 4 3 10 8 2 7 1 2 2 6 2 5 7 9 14 16 23 28 20 10 11
15 11 10 6 1 9 10 25 3 3 7 9 6 2 11 7 2 12 14 9 8 8 5 4 3 4 9 4 2 8 5 5 3 3 5 5 6 14 18 16 20 36 30 18 13
13 10 9 5 2 7 14 22 2 13 11 7 7 5 5 9 6 6 8 11 11 9 16 6 4 6 3 2 4 8 8 6 5 5 4 10 10 9 13 23 10 36 36 23 14
14 9 8 5 2 14 25 19 10 9 8 10 1 2 5 3 5 5 4 8 7 11 1 2 4 2 3 7 3 7 8 6 7 6 8 3 2 18 16 10 23 40 42 27 17
13 6 5 3 11 30 27 11 10 8 10 4 3 5 1 4 1 2 5 4 3 4 7 10 7 1 3 3 10 5 10 9 13 6 4 5 12 12 9 17 34 43 34 25 18
7 3 8 8 25 24 9 8 15 10 8 12 3 5 9 2 3 2 6 10 7 3 13 9 2 2 9 4 3 4 3 7 12 5 7 8 14 11 8 7 19 27 28 27 22
2 7 11 13 21 14 8 8 7 2 1 6 10 8 9 8 4 5 7 6 7 1 2 7 8 2 1 3 4 6 7 7 5 4 7 8 10 12 14 19 16 24 37 30 25
6 3 5 17 18 5 7 11 4 5 5 6 5 4 7 9 11 6 7 5 6 6 4 6 6 2 7 9 12 2 1 4 5 8 10 4 12 12 15 24 25 36 42 33 30
5 4 6 22 6 3 5 10 6 7 6 2 2 7 11 8 5 4 12 8 15 16 11 7 9 6 11 2 4 6 11 9 8 10 6 4 14 8 8 15 36 32 37 37 35
7 4 10 19 6 4 6 3 4 6 7 7 3 1 2 11 1 6 7 5 17 6 11 8 3 5 9 9 9 3 8 7 8 6 10 11 11 2 8 14 30 28 15 18 25
4 3 3 8 6 12 8 7 2 7 2 7 7 6 4 2 5 8 4 6 12 5 8 7 5 11 12 9 9 5 6 10 12 7 7 20 8 11 12 14 13 11 22 34 33
5 4 8 3 6 4 7 10 8 10 7 13 3 9 12 5 5 7 6 5 5 10 6 8 7 3 7 8 5 12 10 17 21 25 18 18 29 15 11 19 29 39 28 19 21
5 7 7 6 9 10 3 9 14 6 14 9 8 9 13 12 14 16 13 8 10 4 6 6 2 5 9 5 14 15 20 22 38 40 40 43 60 21 50 53 49 22 17 20 21
5 9 6 10 5 9 9 10 12 17 13 5 16 6 14 14 13 3 12 13 21 16 9 10 9 6 10 11 13 19 27 41 16 11 43 29 38 10 16 13 13 17 25 34 38
Wind_Direction_850mb
331 318 310 312 309 304 292 288 284 260 247 234 211 194 184 203 247 268 328 328 336 301 341 171 158 116 128 74 156 149 79 169 25 46 110 21 64 51 70 86 59 66 46 10 334
335 328 321 312 303 290 286 282 274 261 237 223 206 199 186 168 131 93 347 328 329 336 347 221 92 113 83 96 73 80 102 113 3 17 60 57 63 41 52 59 45 26 26 9 352
348 342 331 328 317 302 286 275 267 253 234 219 203 190 172 187 310 355 355 324 329 303 313 70 90 75 88 78 54 49 106 144 47 47 71 96 60 58 88 44 34 25 21 3 5
358 347 337 330 330 314 304 284 263 249 227 212 198 182 187 197 203 3 346 318 314 264 185 145 97 67 120 101 87 106 58 100 102 45 52 57 87 69 75 91 37 37 15 10 23
9 3 358 349 335 329 314 297 269 236 215 198 185 184 190 176 331 320 318 298 222 196 169 150 141 293 17 120 93 90 113 77 110 78 44 92 101 103 91 80 59 43 30 27 27
14 8 2 5 11 17 8 20 164 182 176 166 161 165 171 114 319 331 315 155 173 189 162 163 124 107 80 66 70 97 95 93 72 78 62 112 85 100 82 101 76 52 48 30 23
20 16 16 32 51 51 67 72 93 109 119 129 141 159 159 166 326 346 16 111 156 141 153 162 156 134 99 89 99 120 92 63 29 8 81 69 44 95 90 113 100 61 42 32 18
18 21 37 66 70 71 83 97 104 107 113 125 142 156 107 48 48 13 91 99 102 112 118 125 133 108 81 116 70 102 91 138 19 20 46 70 170 180 119 122 109 97 73 36 17
15 15 43 100 96 86 92 110 118 113 116 125 142 119 90 39 73 81 91 109 97 98 98 116 100 83 94 101 51 252 192 135 266 20 320 166 147 183 162 132 120 106 86 58 37
8 9 22 119 126 119 110 112 113 118 124 121 113 128 108 38 81 83 91 114 101 109 100 92 75 72 32 64 190 180 152 98 157 314 1 81 149 174 177 152 137 108 84 70 48
6 8 11 100 142 135 136 123 109 79 89 68 55 94 120 103 80 87 119 112 91 66 84 36 68 96 109 348 49 96 95 113 124 227 39 191 177 194 180 178 153 153 86 65 29
1 5 3 1 178 166 143 46 43 138 93 77 71 93 95 89 64 114 90 85 168 103 80 31 104 216 301 330 69 47 112 58 65 165 169 237 259 234 188 190 186 193 165 91 352
355 358 357 354 197 197 210 347 153 135 74 71 79 72 76 83 59 3 49 85 89 50 18 114 167 219 111 53 83 42 102 103 201 318 226 309 287 194 203 184 197 204 176 227 332
350 350 0 35 137 185 176 126 136 183 74 318 26 17 16 116 39 37 64 72 44 129 101 92 243 190 104 88 329 112 324 130 39 44 186 109 258 248 192 197 199 209 195 223 293
349 342 354 356 89 148 148 163 141 28 12 334 351 5 52 77 87 24 53 78 74 66 102 210 111 53 77 127 3 151 153 114 53 50 38 219 103 265 157 214 217 212 194 214 268
348 336 342 343 195 159 153 170 190 45 261 331 349 9 46 28 31 35 60 79 115 75 43 105 42 55 109 140 75 130 109 71 53 64 15 218 157 259 186 212 182 193 188 202 240
345 335 334 330 175 158 150 149 46 124 335 297 144 315 60 36 15 10 55 37 128 86 62 33 39 64 66 89 34 61 86 24 5 6 224 70 64 247 223 201 172 173 180 196 217
339 345 8 23 137 148 149 58 95 229 218 211 117 69 125 7 328 323 132 103 1 152 116 150 299 74 21 93 162 129 149 156 194 200 233 334 235 257 223 125 170 178 179 197 214
342 68 56 116 148 156 165 73 203 209 165 152 81 125 313 276 156 264 184 183 196 143 148 124 123 52 49 45 77 232 182 169 99 54 51 225 287 316 77 110 151 172 190 209 218
307 95 51 145 163 159 77 225 178 84 51 135 174 167 198 241 162 187 193 212 158 116 183 187 86 9 170 76 43 140 185 83 2 122 260 274 276 238 209 211 201 203 210 221 231
149 94 84 153 160 174 156 214 220 188 117 169 231 186 207 194 174 219 213 295 158 150 84 134 97 167 53 203 178 109 145 36 119 152 180 243 255 217 213 201 200 212 217 229 236
198 67 148 158 84 55 154 176 169 175 182 195 234 181 180 151 174 231 197 186 160 151 159 210 131 150 221 140 37 164 197 158 132 237 233 149 271 267 175 191 195 210 224 237 230
141 112 169 179 128 291 312 295 209 153 187 150 214 63 302 188 87 179 101 113 150 107 166 215 304 50 338 351 357 188 207 185 127 102 214 149 255 197 145 144 160 172 197 238 253
167 46 109 196 144 136 146 258 159 174 141 138 166 82 67 82 62 189 129 169 174 111 128 118 91 167 190 191 127 192 248 196 134 134 203 228 245 252 211 201 183 187 283 277 275
171 202 174 237 270 120 131 170 162 196 189 189 185 184 163 138 49 206 144 109 165 183 131 105 184 134 267 232 186 206 189 201 205 209 195 244 236 214 214 217 226 304 293 281 283
182 158 154 133 148 99 279 232 194 149 145 248 171 212 172 168 187 192 136 181 192 161 124 5 234 88 305 283 226 255 217 219 228 233 250 260 275 263 269 271 275 272 274 285 280
163 172 165 165 154 99 219 214 206 157 208 186 194 146 198 219 177 154 164 172 168 149 148 135 129 91 265 339 318 288 214 207 211 208 223 234 247 246 275 260 239 261 273 282 282